Regional Weather Roundup
Issued by NWS

Home | Current Version | Previous Version | Graphics & Text | Print | Product List | Glossary On
Versions: 1 2 3 4 5 6 7 8 9 10 11 12 13 14 15 16 17 18 19 20 21 22 23 24 25 26 27 28 29 30 31 32 33 34 35 36 37 38 39 40 41 42 43 44 45 46 47 48 49 50
000
ASUS43 KMKX 142310
RWRWI

WISCONSIN REGIONAL WEATHER ROUNDUP
NATIONAL WEATHER SERVICE MILWAUKEE/SULLIVAN WI
500 PM CST THU DEC 14 2017

NOTE: "FAIR" INDICATES FEW OR NO CLOUDS BELOW 12,000 FEET WITH NO
SIGNIFICANT WEATHER AND/OR OBSTRUCTIONS TO VISIBILITY.

WIZ001-002-006>008-014>016-023>028-150000-
NORTHWEST WISCONSIN

CITY           SKY/WX    TMP DP  RH WIND       PRES   REMARKS
SUPERIOR ARPT  CLOUDY    19  13  75 W6        29.99S WCI  11
ASHLAND        LGT SNOW  18  12  77 W7        29.97S WCI   9
HAYWARD        LGT SNOW  17  13  84 SW6       29.95S FOG     WCI   9
SIREN          FLURRIES  19  14  78 W9        29.99S WCI   9
CUMBERLAND     FLURRIES  19  14  79 W7        29.97R WCI  10
RICE LAKE      CLOUDY    19  16  85 CALM      29.99R
CHETEK         CLOUDY    19  16  86 W5        29.99R WCI  13
LADYSMITH      FLURRIES  20  15  82 W7        29.97R WCI  11
EAU CLAIRE     LGT SNOW  21  16  81 W8        29.99S WCI  11
MENOMONIE      LGT SNOW  22  17  81 SW7       30.00R WCI  14
NEW RICHMOND   FLURRIES  21  16  81 W9        30.00R WCI  10
OSCEOLA        CLOUDY    21  16  80 W8        30.04S WCI  12
$$

WIZ003>005-009-010-017-018-150000-
NORTH CENTRAL WISCONSIN

CITY           SKY/WX    TMP DP  RH WIND       PRES   REMARKS
MANITOWISH WTR LGT SNOW  15  14  96 CALM      29.90S
ARBOR VITAE    FLURRIES  17  14  89 CALM      29.90S
WOODRUFF       FLURRIES  17  14  89 CALM      29.90S
RHINELANDER    LGT SNOW  17  14  88 CALM      29.91R FOG
EAGLE RIVER    FLURRIES  15  10  82 CALM      29.89S
LAND O LAKES   FLURRIES  15  11  84 CALM      29.91S
PHILLIPS       LGT SNOW  18  15  89 CALM      29.92R
TOMAHAWK       LGT SNOW  18  14  87 CALM      29.93R
MEDFORD        LGT SNOW  18  15  88 SW5       29.93R WCI  11
MERRILL        LGT SNOW  19  15  85 SW5       29.95R WCI  12
$$

WIZ029-030-035-036-043>047-150000-
CENTRAL WISCONSIN

CITY           SKY/WX    TMP DP  RH WIND       PRES   REMARKS
WAUSAU         LGT SNOW  19  15  84 SW7       29.94S FOG     WCI  10
MOSINEE        LGT SNOW  18  16  93 SW5       29.96F WCI  11
MARSHFIELD     CLOUDY    20  14  77 W7        29.94F WCI  11
STEVENS POINT  CLOUDY    19  14  80 SW5       29.98S WCI  12
WAUPACA        CLOUDY    24  16  69 CALM      30.00S
WAUTOMA        CLOUDY    23  14  68 W6        30.01S WCI  16
WISC RAPIDS    CLOUDY    21  11  65 W3        29.99F
CAMP DOUGLAS   CLOUDY    23  13  63 SW7       30.00S WCI  15
$$

WIZ011>013-019>022-031-037>040-048>050-150000-
NORTHEAST WISCONSIN

CITY           SKY/WX    TMP DP  RH WIND       PRES   REMARKS
ANTIGO         FLURRIES  18  14  87 W6        29.93R WCI   9
SHAWANO        CLOUDY    23  17  75 W6        29.99R WCI  16
OCONTO         CLOUDY    21  16  80 W3        30.00R
STURGEON BAY   FLURRIES  19  13  77 S6        29.99S WCI  11
GREEN BAY      CLOUDY    20  12  71 SW5       30.00F WCI  13
MANITOWOC      NOT AVBL
APPLETON       CLOUDY    21  10  63 W6        29.98  WCI  14
CLINTONVILLE   FLURRIES  21  16  79 W6        29.99F WCI  14
OSHKOSH        CLOUDY    20  12  71 SW3       30.00S
$$

WIZ032>034-041-042-053>061-150000-
SOUTHWEST WISCONSIN

CITY           SKY/WX    TMP DP  RH WIND       PRES   REMARKS
LA CROSSE      CLOUDY    26  14  60 S6        30.02F WCI  19
SPARTA         CLOUDY    24  13  64 CALM      30.02S
VIROQUA        CLOUDY    23  16  75 W5        29.99S WCI  17
BOSCOBEL       CLOUDY    27  12  53 SW6       30.04F WCI  20
PRAIRIE DU CHI CLOUDY    27  14  56 SW8       30.04F WCI  19
PLATTEVILLE    CLEAR     22  11  63 SW5       30.04S WCI  16
$$

WIZ056-057-062-063-064-067-068-150000-
SOUTH CENTRAL WISCONSIN

CITY           SKY/WX    TMP DP  RH WIND       PRES   REMARKS
REEDSBURG      CLOUDY    24  12  60 SW6       30.01F WCI  16
BARABOO/DELLS  CLOUDY    23  12  62 SW8       30.01S WCI  14
LONE ROCK      CLOUDY    23  14  68 CALM      30.04S
MINERAL POINT  MOCLDY    25  12  58 SW5       30.02R WCI  19
MADISON        PTCLDY    22  11  62 W3        30.03R
MIDDLETON      CLOUDY    24  13  64 CALM      30.03R
WATERTOWN      CLEAR     17  11  75 CALM      30.03S
MONROE         CLEAR     25   9  50 SW6       30.03R WCI  18
JANESVILLE     CLEAR     27   9  46 CALM      30.04R
$$

WIZ051-052-058>065-066-070>072-150000-
SOUTHEAST WISCONSIN

CITY           SKY/WX    TMP DP  RH WIND       PRES   REMARKS
MILWAUKEE      PTCLDY    22  11  62 NW6       30.05R WCI  14
WAUKESHA       CLEAR     18   9  68 CALM      30.04S
MILWAUKEE/TIMM CLEAR     19   7  58 CALM      30.05R
RACINE         CLEAR     21   8  57 CALM      30.07R
BURLINGTON     PTCLDY    17  11  77 CALM      30.05R
KENOSHA        CLEAR     19   7  59 CALM      30.05R
FOND DU LAC    MOCLDY    19   9  65 SW3       30.02R
SHEBOYGAN      PTCLDY    14   8  77 SW5       30.02S WCI   6
WEST BEND      CLEAR     18  12  79 SW3       30.03R
JUNEAU         CLEAR     19  11  69 S3        30.03S
$$

LSZ147-162-150000-
LAKE SUPERIOR

STATION/POSITION TIME  TEMP    WIND        PRES    WAVE
                       AIR SEA DIR/SP/G            HT/PER
                 (UTC) (F)     (DEG/KT/KT) (MB)    (FT/S)
DEVILS ISLAND    2200   22     230/ 17/ 20 1015.1R
SAXON HARBOR     2230   20                 1014.6S
$$

LMZ867-665-643>646-150000-
LAKE MICHIGAN

STATION/POSITION TIME  TEMP    WIND        PRES    WAVE
                       AIR SEA DIR/SP/G            HT/PER
                 (UTC) (F)     (DEG/KT/KT) (MB)    (FT/S)
NORTHPORT PIER   2257   21      CALM  / 10 1015.2R
KEWAUNEE LAKESHO 2100   20     260/  5/ 10 1015.2
SHEBOYGAN LAKESH 2300   21     240/  6/  8 1018.1R
PORT WASHINGTON  2230   21     270/  4/  6 1018.6R
MILWAUKEE LAKESH 2100   23     290/  9/ 12   N/A
KENOSHA   LAKESH 2230   24     310/  4/  6 1017.9R
$$

TC  - TEMPERATURE IN CELSIUS
VSB - VISIBILITY IN STATUTE MILES
WCI - WIND CHILL INDEX
HX  - HEAT INDEX





USA.gov is the U.S. government's official web portal to all federal, state and local government web resources and services.